Find Starlink 6343

NORAD ID: 57362 Int'l Des: 2023-099 Owner: SPXS Country: US Constellation: starlink operational
LEOCIRCULAR

現在のビュー

3D地球を読み込み中...

Starlink 6343について

説明を読み込み中...

次回通過

Passes for default location (London). Set your location on the main map for personalized predictions.

高度履歴

Loading altitude history...

軌道要素

1 57362U 23099AL 26150.36505609 -.00000298 00000-0 -12914-5 0 9997
2 57362 43.0046 140.1480 0001425 279.4722 80.5968 15.27582541158689
Epoch: May 30, 2026 • Age: 21 hours

現在のステータス

高度 493.0 km
速度 7.62 km/s
衛星直下点 -36.50°S, 25.29°E
打ち上げ日 Jul 16, 2023
運用期間 2.8 years
タイプ internet

技術仕様

分類 Payload
質量 305.00 kg
乾燥質量 290.00 kg
総質量 305.00 kg
長さ 0.20 m
直径 2.80 m
スパン 9.00 m
形状 Box + pan
製造者 SPXS
バスタイプ Starlink
フェーズステータス In Orbit
所有者/国 SPXS/US

Most Searched